Погода в Тойси-Паразусях

Россия / Чувашская Республика     55°21′06″N   47°10′05″E
темп.,
°C
ветер,
м/с
пор.,
м/с
влажн.,
%
обл.,
%
осадки,
мм/ч
давл.,
гПа
погр.,
м
19 июня, сб
сб1900:00+12зюз227334 0.0 102724
03:00+11зюз33755 0.0 102734
06:00+15зюз38767 0.0 1027215
09:00+21з565723 0.0 1026667
12:00+24з67515 0.0 10241135
15:00+25з68575 0.0 10231359
18:00+23з59680 0.0 1022817
21:00+18зюз411880 0.0 1023233
20 июня, вс
вс2000:00+17з411875 0.0 1023234
03:00+15з38933 0.0 1023143
06:00+19з37815 0.0 1023210
09:00+24зсз45635 0.0 1023651
12:00+28сз44502 0.0 10231531
15:00+28сз44491 0.0 10221892
18:00+26зсз35685 0.0 1021347
21:00+20з34910 0.0 102253
21 июня, пн
пн2100:00+18з22930 0.0 102230
03:00+17з22935 0.0 102331
06:00+21з24820 0.0 1023159
09:00+26з23592 0.0 1023719
12:00+29зсз23465 0.0 10221667
15:00+29зсз334651 0.0 10221850
18:00+26з366898 0.0 1021213
21:00+21з228396 0.0 102218
22 июня, вт
вт2200:00+19з229224 0.0 102320
03:00+18з229354 0.0 102330
06:00+22з2382100 0.0 1023136
09:00+26зсз226330 0.0 1023638
12:00+30сз12475 0.0 10231673
15:00+30сз234395 0.0 10222162
18:00+27сз24670 0.1 1021198
21:00+22зсз22840 0.1 102213
23 июня, ср
ср2300:00+20зсз22870 0.0 102211
03:00+19з22900 0.0 102219
06:00+22зсз23795 0.0 1022141
09:00+27зсз22595 0.0 1022768
12:00+30сз23445 0.0 10212130
15:00+30с33443 0.0 10211782
18:00+28сз23650 0.0 1021210
21:00+22з348412 0.2 102148